Corinth, MS

10:16 AM CST on February 25, 2017 (GMT -0600)
Turner

Weather History for KCRX - May, 2013

Change the Weather History Date:

Sunday, May 19, 2013

  Actual Average Record
Temperature  
Mean Temperature 77 °F -  
Max Temperature 86 °F 83 °F 96 °F (1962)
Min Temperature 68 °F 59 °F 41 °F (1976)
Cooling Degree Days 12    
Growing Degree Days 27 (Base 50)    
Moisture  
Dew Point 68 °F    
Average Humidity 75    
Maximum Humidity 100    
Minimum Humidity 55    
Precipitation  
Precipitation 0.00 in - - ()
Sea Level Pressure  
Sea Level Pressure 29.96 in    
Wind  
Wind Speed 7 mph (South)    
Max Wind Speed 15 mph    
Max Gust Speed 20 mph    
Visibility 8 miles    
Events      
Averages and records for this station are not official NWS values.
T = Trace of Precipitation, MM = Missing Value Source: NWS Daily Summary

Daily Weather History Graph

Daily Weather History Graph

Search for Another Location

Airport or City:

Trip Planner

Search our weather history database for the weather conditions in past years. The results will help you decide how hot, cold, wet, or windy it might be!

Date:

Astronomy

May. 19, 2013 Rise Set
Actual Time 5:48 AM CDT 7:54 PM CDT
Civil Twilight 5:19 AM CDT 8:22 PM CDT
Nautical Twilight 4:45 AM CDT 8:57 PM CDT
Astronomical Twilight 4:08 AM CDT 9:34 PM CDT
Moon 2:11 PM CDT (5/19) 1:57 AM CDT (5/19)
Length of Visible Light 15h 02m
Length of Day
14h 06m
Waxing Gibbous, 65% of the Moon is Illuminated
May 19
Waxing Gibbous
May 24
Full
May 31
Last Quarter
Jun 8
New
Jun 16
First Quarter

Hourly Weather History & Observations

Time (CDT) Temp. Heat Index Dew Point Humidity Pressure Visibility Wind Dir Wind Speed Gust Speed Precip Events Conditions
12:10 AM 71.6 °F - 69.8 °F 94% 29.95 in 4.0 mi SE 5.8 mph - N/A   Partly Cloudy
12:30 AM 71.6 °F - 68.0 °F 88% 29.95 in 4.0 mi South 3.5 mph - N/A   Clear
12:50 AM 71.6 °F - 68.0 °F 88% 29.95 in 3.0 mi South 4.6 mph - N/A   Clear
1:10 AM 71.6 °F - 68.0 °F 88% 29.95 in 4.0 mi SSE 4.6 mph - N/A   Partly Cloudy
1:30 AM 71.6 °F - 68.0 °F 88% 29.95 in 4.0 mi South 3.5 mph - N/A   Clear
1:50 AM 71.6 °F - 68.0 °F 88% 29.95 in 4.0 mi SSE 4.6 mph - N/A   Partly Cloudy
2:10 AM 71.6 °F - 68.0 °F 88% 29.94 in 3.0 mi SSE 4.6 mph - N/A   Partly Cloudy
2:30 AM 71.6 °F - 68.0 °F 88% 29.94 in 3.0 mi SSE 3.5 mph - N/A   Scattered Clouds
2:50 AM 69.8 °F - 68.0 °F 94% 29.94 in 1.0 mi Calm Calm - N/A   Mostly Cloudy
3:10 AM 68.0 °F - 68.0 °F 100% 29.95 in 0.8 mi Calm Calm - N/A   Overcast
3:30 AM 69.8 °F - 68.0 °F 94% 29.95 in 1.0 mi Calm Calm - N/A   Overcast
3:50 AM 68.0 °F - 68.0 °F 100% 29.96 in 0.8 mi SSE 4.6 mph - N/A   Overcast
4:10 AM 68.0 °F - 66.2 °F 94% 29.96 in 0.8 mi South 4.6 mph - N/A   Overcast
4:30 AM 69.8 °F - 68.0 °F 94% 29.96 in 1.8 mi South 5.8 mph - N/A   Mostly Cloudy
4:50 AM 69.8 °F - 68.0 °F 94% 29.96 in 2.0 mi South 5.8 mph - N/A   Mostly Cloudy
5:10 AM 68.0 °F - 68.0 °F 100% 29.95 in 2.0 mi South 4.6 mph - N/A   Mostly Cloudy
5:30 AM 69.8 °F - 68.0 °F 94% 29.96 in 3.0 mi South 3.5 mph - N/A   Partly Cloudy
5:50 AM 69.8 °F - 68.0 °F 94% 29.96 in 2.5 mi SSW 4.6 mph - N/A   Clear
6:10 AM 71.6 °F - 68.0 °F 88% 29.96 in 4.0 mi South 5.8 mph - N/A   Clear
6:30 AM 71.6 °F - 68.0 °F 88% 29.96 in 2.5 mi South 5.8 mph - N/A   Clear
6:50 AM 71.6 °F - 68.0 °F 88% 29.97 in 4.0 mi SSW 8.1 mph - N/A   Clear
7:10 AM 73.4 °F - 68.0 °F 83% 29.97 in 5.0 mi SW 6.9 mph - N/A   Clear
7:30 AM 73.4 °F - 69.8 °F 88% 29.98 in 6.0 mi SW 9.2 mph - N/A   Clear
7:50 AM 75.2 °F - 69.8 °F 83% 29.98 in 7.0 mi SSW 6.9 mph - N/A   Clear
8:10 AM 75.2 °F - 69.8 °F 83% 29.98 in 8.0 mi SW 9.2 mph - N/A   Clear
8:30 AM 77.0 °F - 69.8 °F 78% 29.99 in 9.0 mi SSW 6.9 mph - N/A   Clear
8:50 AM 77.0 °F - 68.0 °F 74% 29.99 in 10.0 mi SW 8.1 mph - N/A   Clear
9:10 AM 77.0 °F - 68.0 °F 74% 30.00 in 10.0 mi SW 8.1 mph - N/A   Clear
9:30 AM 78.8 °F - 68.0 °F 69% 30.01 in 10.0 mi SW 9.2 mph - N/A   Partly Cloudy
9:50 AM 78.8 °F - 68.0 °F 69% 30.02 in 10.0 mi WSW 10.4 mph - N/A   Mostly Cloudy
10:10 AM 77.0 °F - 68.0 °F 74% 30.02 in 10.0 mi SW 8.1 mph - N/A   Overcast
10:30 AM 78.8 °F - 69.8 °F 74% 30.02 in 10.0 mi SW 6.9 mph - N/A   Mostly Cloudy
10:50 AM 78.8 °F - 68.0 °F 69% 30.02 in 10.0 mi SW 8.1 mph - N/A   Mostly Cloudy
11:10 AM 80.6 °F 83.2 °F 68.0 °F 65% 30.02 in 10.0 mi SW 4.6 mph - N/A   Mostly Cloudy
11:30 AM 80.6 °F 83.2 °F 68.0 °F 65% 30.01 in 10.0 mi WSW 4.6 mph - N/A   Scattered Clouds
11:50 AM 82.4 °F 85.4 °F 68.0 °F 62% 30.01 in 10.0 mi SW 6.9 mph - N/A   Partly Cloudy
12:10 PM 82.4 °F 85.4 °F 68.0 °F 62% 30.00 in 10.0 mi SSW 4.6 mph - N/A   Scattered Clouds
12:30 PM 82.4 °F 85.4 °F 68.0 °F 62% 29.99 in 10.0 mi South 6.9 mph - N/A   Scattered Clouds
12:50 PM 82.4 °F 85.4 °F 68.0 °F 62% 29.99 in 10.0 mi SSW 9.2 mph - N/A   Mostly Cloudy
1:10 PM 84.2 °F 87.3 °F 68.0 °F 58% 29.98 in 10.0 mi South 9.2 mph - N/A   Scattered Clouds
1:30 PM 84.2 °F 87.3 °F 68.0 °F 58% 29.97 in 10.0 mi SSE 11.5 mph - N/A   Partly Cloudy
1:50 PM 84.2 °F 87.3 °F 68.0 °F 58% 29.97 in 10.0 mi South 9.2 mph - N/A   Scattered Clouds
2:10 PM 84.2 °F 87.3 °F 68.0 °F 58% 29.96 in 10.0 mi South 11.5 mph - N/A   Scattered Clouds
2:30 PM 84.2 °F 87.3 °F 68.0 °F 58% 29.95 in 10.0 mi South 11.5 mph - N/A   Mostly Cloudy
2:50 PM 84.2 °F 87.3 °F 68.0 °F 58% 29.95 in 10.0 mi South 6.9 mph - N/A   Mostly Cloudy
3:10 PM 84.2 °F 87.3 °F 68.0 °F 58% 29.95 in 10.0 mi South 11.5 mph - N/A   Scattered Clouds
3:30 PM 84.2 °F 87.3 °F 68.0 °F 58% 29.94 in 10.0 mi South 11.5 mph 17.3 mph N/A   Mostly Cloudy
3:50 PM 84.2 °F 87.3 °F 68.0 °F 58% 29.94 in 10.0 mi South 10.4 mph - N/A   Scattered Clouds
4:10 PM 84.2 °F 87.3 °F 68.0 °F 58% 29.94 in 10.0 mi South 12.7 mph 17.3 mph N/A   Mostly Cloudy
4:30 PM 84.2 °F 87.3 °F 68.0 °F 58% 29.94 in 10.0 mi South 11.5 mph 17.3 mph N/A   Partly Cloudy
4:50 PM 86.0 °F 89.4 °F 68.0 °F 55% 29.94 in 10.0 mi SSW 13.8 mph 17.3 mph N/A   Clear
5:10 PM 84.2 °F 87.3 °F 68.0 °F 58% 29.94 in 10.0 mi South 12.7 mph - N/A   Scattered Clouds
5:30 PM 84.2 °F 87.3 °F 68.0 °F 58% 29.94 in 10.0 mi South 12.7 mph 18.4 mph N/A   Scattered Clouds
5:50 PM 82.4 °F 85.4 °F 68.0 °F 62% 29.93 in 10.0 mi South 10.4 mph 16.1 mph N/A   Partly Cloudy
6:10 PM 82.4 °F 85.4 °F 68.0 °F 62% 29.93 in 10.0 mi SSE 10.4 mph - N/A   Clear
6:30 PM 82.4 °F 85.4 °F 68.0 °F 62% 29.93 in 10.0 mi SSE 10.4 mph - N/A   Clear
6:50 PM 82.4 °F 85.4 °F 68.0 °F 62% 29.93 in 10.0 mi SSE 12.7 mph 19.6 mph N/A   Clear
7:10 PM 80.6 °F 83.2 °F 68.0 °F 65% 29.93 in 10.0 mi SSE 12.7 mph 19.6 mph N/A   Clear
7:30 PM 80.6 °F 83.2 °F 68.0 °F 65% 29.94 in 10.0 mi SSE 12.7 mph 17.3 mph N/A   Clear
7:50 PM 78.8 °F - 68.0 °F 69% 29.94 in 10.0 mi SSE 15.0 mph 19.6 mph N/A   Clear
8:10 PM 77.0 °F - 68.0 °F 74% 29.95 in 10.0 mi SSE 11.5 mph - N/A   Clear
8:30 PM 77.0 °F - 68.0 °F 74% 29.96 in 10.0 mi SSE 11.5 mph - N/A   Clear
8:50 PM 77.0 °F - 68.0 °F 74% 29.96 in 10.0 mi SSE 10.4 mph - N/A   Clear
9:10 PM 75.2 °F - 66.2 °F 73% 29.97 in 10.0 mi SSE 12.7 mph - N/A   Clear
9:30 PM 75.2 °F - 66.2 °F 73% 29.96 in 10.0 mi South 9.2 mph - N/A   Clear
9:50 PM 75.2 °F - 66.2 °F 73% 29.97 in 10.0 mi South 11.5 mph - N/A   Clear
10:10 PM 73.4 °F - 68.0 °F 83% 29.96 in 10.0 mi SSE 12.7 mph 17.3 mph N/A   Clear
10:30 PM 73.4 °F - 68.0 °F 83% 29.96 in 10.0 mi South 9.2 mph 17.3 mph N/A   Clear
10:50 PM 73.4 °F - 68.0 °F 83% 29.96 in 10.0 mi South 11.5 mph - N/A   Clear
11:10 PM 73.4 °F - 66.2 °F 78% 29.97 in 10.0 mi SSE 9.2 mph - N/A   Clear
11:30 PM 73.4 °F - 66.2 °F 78% 29.97 in 10.0 mi SSE 10.4 mph - N/A   Clear
11:50 PM 73.4 °F - 66.2 °F 78% 29.97 in 10.0 mi South 9.2 mph 16.1 mph N/A   Clear